Location: Baix
(44.7118°N, 4.7648°E)
Time: 03:04:44
(UTC+00:00)

Meteor 1-12 Rocket - Pass Details

Date: 07 August 2020
Orbit: 854 x 927 km, 81.2° (Epoch: 27 September)

Event Time Altitude Azimuth Distance (km) Brightness Sun altitude
Exits shadow 01:11:24 64° 239° (WSW) 1,011 4.3 -26.0°
Maximum altitude 01:12:06 70° 282° (WNW) 972 4.3 -25.9°
Drops below altitude 10° 01:18:07 10° 7° (N) 2,633 7.7 -25.5°
Sets 01:20:38 0° 9° (N) 3,584 8.7 -25.3°
